Time,TemperatureF,DewpointF,PressureIn,WindDirection,WindDirectionDegrees,WindSpeedMPH,WindSpeedGustMPH,Humidity,HourlyPrecipIn,Conditions,Clouds,dailyrainin,SoftwareType,DateUTC
2013-02-13 00:01:00,39.7,38.2,29.67,WNW,292,1.1,-999.0,94,-99.99,,,0.00,Acu-Link.com,2013-02-13 05:01:00,
2013-02-13 00:16:00,39.7,38.4,29.66,ESE,112,1.6,-999.0,95,-99.99,,,0.00,Acu-Link.com,2013-02-13 05:16:00,
2013-02-13 00:31:00,39.7,38.7,29.65,SW,225,0.0,-999.0,96,-99.99,,,0.00,Acu-Link.com,2013-02-13 05:31:00,
2013-02-13 00:46:00,39.7,38.4,29.64,WSW,247,1.6,-999.0,95,-99.99,,,0.00,Acu-Link.com,2013-02-13 05:46:00,
2013-02-13 01:02:00,39.7,38.4,29.63,WSW,247,3.8,-999.0,95,-99.99,,,0.00,Acu-Link.com,2013-02-13 06:02:00,
2013-02-13 01:17:00,39.9,38.1,29.63,SE,135,1.1,-999.0,93,-99.99,,,0.00,Acu-Link.com,2013-02-13 06:17:00,
2013-02-13 01:32:00,39.9,38.3,29.62,West,270,2.2,-999.0,94,-99.99,,,0.00,Acu-Link.com,2013-02-13 06:32:00,
2013-02-13 01:47:00,39.9,38.3,29.62,West,270,2.2,-999.0,94,-99.99,,,0.00,Acu-Link.com,2013-02-13 06:47:00,
2013-02-13 02:02:00,39.9,38.3,29.61,West,270,2.7,-999.0,94,-99.99,,,0.00,Acu-Link.com,2013-02-13 07:02:00,
2013-02-13 02:18:00,39.9,38.1,29.61,East,90,2.2,-999.0,93,-99.99,,,0.00,Acu-Link.com,2013-02-13 07:18:00,
2013-02-13 02:33:00,39.9,38.3,29.60,WSW,247,1.6,-999.0,94,-99.99,,,0.00,Acu-Link.com,2013-02-13 07:33:00,
2013-02-13 02:48:00,39.9,38.6,29.60,SW,225,0.0,-999.0,95,-99.99,,,0.00,Acu-Link.com,2013-02-13 07:48:00,
2013-02-13 03:03:00,40.1,38.5,29.59,WNW,292,1.1,-999.0,94,-99.99,,,0.00,Acu-Link.com,2013-02-13 08:03:00,
2013-02-13 03:18:00,40.3,38.4,29.58,South,180,0.0,-999.0,93,-99.99,,,0.00,Acu-Link.com,2013-02-13 08:18:00,
2013-02-13 03:34:00,40.3,38.7,29.58,NNW,337,1.1,-999.0,94,-99.99,,,0.00,Acu-Link.com,2013-02-13 08:34:00,
2013-02-13 03:49:00,40.3,38.7,29.56,ESE,112,1.6,-999.0,94,-99.99,,,0.00,Acu-Link.com,2013-02-13 08:49:00,
2013-02-13 04:15:00,40.3,38.7,29.56,SW,225,0.0,-999.0,94,-99.99,,,0.00,Acu-Link.com,2013-02-13 09:15:00,
2013-02-13 04:30:00,40.3,38.7,29.55,East,90,2.7,-999.0,94,-99.99,,,0.00,Acu-Link.com,2013-02-13 09:30:00,
2013-02-13 04:46:00,40.5,38.9,29.55,SE,135,1.6,-999.0,94,-99.99,,,0.00,Acu-Link.com,2013-02-13 09:46:00,
2013-02-13 05:01:00,40.5,38.9,29.55,South,180,1.6,-999.0,94,-99.99,,,0.00,Acu-Link.com,2013-02-13 10:01:00,
2013-02-13 05:16:00,40.6,39.1,29.54,ESE,112,3.1,-999.0,94,-99.99,,,0.00,Acu-Link.com,2013-02-13 10:16:00,
2013-02-13 05:31:00,40.6,39.1,29.54,NE,45,3.8,-999.0,94,-99.99,,,0.00,Acu-Link.com,2013-02-13 10:31:00,
2013-02-13 05:46:00,40.6,39.1,29.52,ESE,112,3.1,-999.0,94,-99.99,,,0.00,Acu-Link.com,2013-02-13 10:46:00,
2013-02-13 06:01:00,40.6,39.1,29.52,South,180,1.1,-999.0,94,-99.99,,,0.00,Acu-Link.com,2013-02-13 11:01:00,
2013-02-13 06:17:00,40.8,39.2,29.51,NNE,22,1.6,-999.0,94,-99.99,,,0.00,Acu-Link.com,2013-02-13 11:17:00,
2013-02-13 06:32:00,40.8,39.2,29.51,NNW,337,0.0,-999.0,94,-99.99,,,0.00,Acu-Link.com,2013-02-13 11:32:00,
2013-02-13 06:47:00,40.8,39.2,29.51,SW,225,0.0,-999.0,94,-99.99,,,0.00,Acu-Link.com,2013-02-13 11:47:00,
2013-02-13 07:02:00,41.0,39.7,29.53,ESE,112,0.0,-999.0,95,-99.99,,,0.00,Acu-Link.com,2013-02-13 12:02:00,
2013-02-13 07:17:00,40.8,39.5,29.52,East,90,0.0,-999.0,95,-99.99,,,0.00,Acu-Link.com,2013-02-13 12:17:00,
2013-02-13 07:33:00,40.8,39.5,29.53,NW,315,1.6,-999.0,95,-99.99,,,0.00,Acu-Link.com,2013-02-13 12:33:00,
2013-02-13 07:48:00,40.8,39.5,29.51,SE,135,2.2,-999.0,95,-99.99,,,0.00,Acu-Link.com,2013-02-13 12:48:00,
2013-02-13 08:03:00,40.8,39.5,29.51,West,270,0.0,-999.0,95,-99.99,,,0.00,Acu-Link.com,2013-02-13 13:03:00,
2013-02-13 08:18:00,41.2,39.9,29.52,ESE,112,0.0,-999.0,95,-99.99,,,0.00,Acu-Link.com,2013-02-13 13:18:00,
2013-02-13 08:33:00,41.4,40.0,29.52,ESE,112,0.0,-999.0,95,-99.99,,,0.00,Acu-Link.com,2013-02-13 13:33:00,
2013-02-13 08:49:00,41.7,40.1,29.52,NNE,22,0.0,-999.0,94,-99.99,,,0.00,Acu-Link.com,2013-02-13 13:49:00,
2013-02-13 09:04:00,42.1,40.5,29.53,SE,135,0.0,-999.0,94,-99.99,,,0.00,Acu-Link.com,2013-02-13 14:04:00,
2013-02-13 09:19:00,42.6,41.3,29.53,East,90,2.7,-999.0,95,-99.99,,,0.00,Acu-Link.com,2013-02-13 14:19:00,
2013-02-13 09:34:00,43.2,41.6,29.51,NNE,22,1.6,-999.0,94,-99.99,,,0.00,Acu-Link.com,2013-02-13 14:34:00,
2013-02-13 09:50:00,43.9,42.3,29.52,ESE,112,1.6,-999.0,94,-99.99,,,0.00,Acu-Link.com,2013-02-13 14:50:00,
2013-02-13 10:05:00,44.4,42.2,29.51,SSE,157,1.6,-999.0,92,-99.99,,,0.01,Acu-Link.com,2013-02-13 15:05:00,
2013-02-13 10:20:00,45.3,42.3,29.51,WSW,247,1.6,-999.0,89,-99.99,,,0.01,Acu-Link.com,2013-02-13 15:20:00,
2013-02-13 10:35:00,46.4,43.0,29.52,ESE,112,1.1,-999.0,88,-99.99,,,0.01,Acu-Link.com,2013-02-13 15:35:00,
2013-02-13 10:50:00,47.7,43.7,29.51,NNW,337,2.2,-999.0,86,-99.99,,,0.01,Acu-Link.com,2013-02-13 15:50:00,
2013-02-13 11:06:00,49.3,44.3,29.51,South,180,2.2,-999.0,83,-99.99,,,0.01,Acu-Link.com,2013-02-13 16:06:00,
2013-02-13 11:21:00,49.5,44.5,29.51,SW,225,0.0,-999.0,83,-99.99,,,0.01,Acu-Link.com,2013-02-13 16:21:00,
2013-02-13 11:36:00,50.0,43.4,29.51,WNW,292,2.7,-999.0,78,-99.99,,,0.01,Acu-Link.com,2013-02-13 16:36:00,
2013-02-13 11:51:00,49.1,43.8,29.51,SW,225,1.6,-999.0,82,-99.99,,,0.01,Acu-Link.com,2013-02-13 16:51:00,
2013-02-13 12:06:00,48.6,42.0,29.51,South,180,5.1,-999.0,78,-99.99,,,0.01,Acu-Link.com,2013-02-13 17:06:00,
2013-02-13 12:22:00,48.6,42.7,29.50,SSE,157,1.6,-999.0,80,-99.99,,,0.01,Acu-Link.com,2013-02-13 17:22:00,
2013-02-13 12:37:00,47.7,42.4,29.49,SSE,157,4.3,-999.0,82,-99.99,,,0.01,Acu-Link.com,2013-02-13 17:37:00,
2013-02-13 12:52:00,46.8,41.9,29.49,East,90,2.7,-999.0,83,-99.99,,,0.01,Acu-Link.com,2013-02-13 17:52:00,
2013-02-13 13:07:00,46.9,41.7,29.50,ENE,67,1.1,-999.0,82,-99.99,,,0.01,Acu-Link.com,2013-02-13 18:07:00,
2013-02-13 13:22:00,46.8,40.9,29.48,SSE,157,2.7,-999.0,80,-99.99,,,0.01,Acu-Link.com,2013-02-13 18:22:00,
2013-02-13 13:38:00,46.6,41.1,29.49,ESE,112,2.7,-999.0,81,-99.99,,,0.01,Acu-Link.com,2013-02-13 18:38:00,
2013-02-13 13:53:00,46.6,41.1,29.48,East,90,5.8,-999.0,81,-99.99,,,0.01,Acu-Link.com,2013-02-13 18:53:00,
2013-02-13 14:08:00,46.6,40.7,29.49,ESE,112,2.7,-999.0,80,-99.99,,,0.01,Acu-Link.com,2013-02-13 19:08:00,
2013-02-13 14:23:00,46.6,40.4,29.49,NE,45,6.7,-999.0,79,-99.99,,,0.01,Acu-Link.com,2013-02-13 19:23:00,
2013-02-13 14:39:00,46.0,40.2,29.49,East,90,3.8,-999.0,80,-99.99,,,0.01,Acu-Link.com,2013-02-13 19:39:00,
2013-02-13 14:54:00,45.1,40.3,29.49,ENE,67,6.3,-999.0,83,-99.99,,,0.01,Acu-Link.com,2013-02-13 19:54:00,
2013-02-13 15:09:00,45.0,40.1,29.50,NNE,22,6.3,-999.0,83,-99.99,,,0.01,Acu-Link.com,2013-02-13 20:09:00,
2013-02-13 15:24:00,44.1,39.5,29.50,NW,315,6.7,-999.0,84,-99.99,,,0.01,Acu-Link.com,2013-02-13 20:24:00,
2013-02-13 15:39:00,43.9,39.4,29.52,ESE,112,6.3,-999.0,84,-99.99,,,0.01,Acu-Link.com,2013-02-13 20:39:00,
2013-02-13 15:55:00,42.6,39.0,29.52,WNW,292,6.7,-999.0,87,-99.99,,,0.01,Acu-Link.com,2013-02-13 20:55:00,
2013-02-13 16:10:00,42.1,38.5,29.54,SW,225,6.3,-999.0,87,-99.99,,,0.02,Acu-Link.com,2013-02-13 21:10:00,
2013-02-13 16:25:00,41.9,38.3,29.53,NNW,337,4.3,-999.0,87,-99.99,,,0.04,Acu-Link.com,2013-02-13 21:25:00,
2013-02-13 16:40:00,41.2,39.0,29.53,NW,315,3.1,-999.0,92,-99.99,,,0.05,Acu-Link.com,2013-02-13 21:40:00,
2013-02-13 16:55:00,40.8,38.4,29.53,SSE,157,3.8,-999.0,91,-99.99,,,0.08,Acu-Link.com,2013-02-13 21:55:00,
2013-02-13 17:11:00,40.6,38.8,29.54,WSW,247,0.0,-999.0,93,-99.99,,,0.09,Acu-Link.com,2013-02-13 22:11:00,
2013-02-13 17:26:00,40.3,37.9,29.56,SW,225,6.7,-999.0,91,-99.99,,,0.09,Acu-Link.com,2013-02-13 22:26:00,
2013-02-13 17:41:00,39.9,37.8,29.57,SSE,157,3.1,-999.0,92,-99.99,,,0.09,Acu-Link.com,2013-02-13 22:41:00,
2013-02-13 17:56:00,39.4,36.4,29.59,ESE,112,3.1,-999.0,89,-99.99,,,0.09,Acu-Link.com,2013-02-13 22:56:00,
2013-02-13 18:11:00,38.8,35.6,29.59,East,90,4.3,-999.0,88,-99.99,,,0.09,Acu-Link.com,2013-02-13 23:11:00,
2013-02-13 18:27:00,38.3,34.8,29.61,ENE,67,4.3,-999.0,87,-99.99,,,0.09,Acu-Link.com,2013-02-13 23:27:00,
2013-02-13 18:42:00,38.1,35.2,29.61,East,90,3.8,-999.0,89,-99.99,,,0.09,Acu-Link.com,2013-02-13 23:42:00,
2013-02-13 18:57:00,37.4,34.5,29.61,SSW,202,5.1,-999.0,89,-99.99,,,0.09,Acu-Link.com,2013-02-13 23:57:00,
2013-02-13 19:12:00,36.9,33.6,29.62,West,270,1.6,-999.0,88,-99.99,,,0.09,Acu-Link.com,2013-02-14 00:12:00,
2013-02-13 19:28:00,36.1,33.2,29.63,NW,315,3.8,-999.0,89,-99.99,,,0.09,Acu-Link.com,2013-02-14 00:28:00,
2013-02-13 19:58:00,36.0,33.0,29.63,ESE,112,3.1,-999.0,89,-99.99,,,0.09,Acu-Link.com,2013-02-14 00:58:00,
2013-02-13 20:13:00,36.1,32.9,29.65,ENE,67,3.1,-999.0,88,-99.99,,,0.09,Acu-Link.com,2013-02-14 01:13:00,
2013-02-13 20:28:00,35.8,32.9,29.66,NNE,22,1.6,-999.0,89,-99.99,,,0.09,Acu-Link.com,2013-02-14 01:28:00,
2013-02-13 20:44:00,35.6,32.4,29.65,NNW,337,2.7,-999.0,88,-99.99,,,0.09,Acu-Link.com,2013-02-14 01:44:00,
2013-02-13 20:59:00,35.2,32.0,29.65,SE,135,4.3,-999.0,88,-99.99,,,0.09,Acu-Link.com,2013-02-14 01:59:00,
2013-02-13 21:14:00,34.7,31.8,29.66,North,0,2.7,-999.0,89,-99.99,,,0.09,Acu-Link.com,2013-02-14 02:14:00,
2013-02-13 21:29:00,34.5,31.6,29.66,NNE,22,7.8,-999.0,89,-99.99,,,0.09,Acu-Link.com,2013-02-14 02:29:00,
2013-02-13 21:44:00,34.3,31.4,29.66,SW,225,5.1,-999.0,89,-99.99,,,0.09,Acu-Link.com,2013-02-14 02:44:00,
2013-02-13 22:00:00,34.5,31.3,29.66,SSW,202,4.3,-999.0,88,-99.99,,,0.09,Acu-Link.com,2013-02-14 03:00:00,
2013-02-13 22:15:00,34.2,31.0,29.68,SSW,202,8.3,-999.0,88,-99.99,,,0.09,Acu-Link.com,2013-02-14 03:15:00,
2013-02-13 22:30:00,33.8,30.6,29.68,WNW,292,3.8,-999.0,88,-99.99,,,0.09,Acu-Link.com,2013-02-14 03:30:00,
2013-02-13 22:45:00,33.6,30.7,29.68,SE,135,3.1,-999.0,89,-99.99,,,0.09,Acu-Link.com,2013-02-14 03:45:00,
2013-02-13 23:00:00,33.4,30.6,29.68,ESE,112,5.1,-999.0,89,-99.99,,,0.09,Acu-Link.com,2013-02-14 04:00:00,
2013-02-13 23:16:00,33.4,30.6,29.69,ESE,112,8.3,-999.0,89,-99.99,,,0.09,Acu-Link.com,2013-02-14 04:16:00,
2013-02-13 23:31:00,33.4,30.6,29.70,East,90,3.8,-999.0,89,-99.99,,,0.09,Acu-Link.com,2013-02-14 04:31:00,
2013-02-13 23:46:00,33.4,30.6,29.71,NW,315,5.8,-999.0,89,-99.99,,,0.09,Acu-Link.com,2013-02-14 04:46:00,